Vernal, UT

8:43 AM MDT on August 30, 2016 (GMT -0600)
Vernal

Weather History for KVEL - December, 2012

Change the Weather History Date:

Saturday, December 15, 2012

  Actual Average Record
Temperature  
Mean Temperature 27 °F 22 °F  
Max Temperature 33 °F 30 °F 53 °F (1948)
Min Temperature 21 °F 13 °F -22 °F (1931)
Degree Days  
Heating Degree Days 38 44  
Month to date heating degree days 497 620  
Since 1 July heating degree days 1845 2251  
Cooling Degree Days 0 0  
Month to date cooling degree days 0 0  
Year to date cooling degree days 810 511  
Moisture  
Dew Point 28 °F    
Average Humidity 93    
Maximum Humidity 100    
Minimum Humidity 85    
Precipitation  
Precipitation 0.14 in 0.02 in 0.73 in (1936)
Month to date precipitation 0.19 0.29  
Year to date precipitation 4.18 8.96  
Sea Level Pressure  
Sea Level Pressure 29.80 in    
Wind  
Wind Speed 2 mph (South)    
Max Wind Speed 12 mph    
Max Gust Speed 15 mph    
Visibility 5 miles    
Events Fog , Snow    
T = Trace of Precipitation, MM = Missing Value Source: NWS Daily Summary

Daily Weather History Graph

Daily Weather History Graph

Search for Another Location

Airport or City:

Trip Planner

Search our weather history database for the weather conditions in past years. The results will help you decide how hot, cold, wet, or windy it might be!

Date:

Astronomy

Dec. 15, 2012 Rise Set
Actual Time 7:34 AM MST 4:52 PM MST
Civil Twilight 7:03 AM MST 5:23 PM MST
Nautical Twilight 6:29 AM MST 5:57 PM MST
Astronomical Twilight 5:56 AM MST 6:30 PM MST
Moon 9:29 AM MST (12/15) 8:00 PM MST (12/15)
Length of Visible Light 10h 19m
Length of Day
9h 18m
Waxing Crescent, 9% of the Moon is Illuminated
Dec 15
Waxing Crescent
Dec 19
First Quarter
Dec 28
Full
Jan 4
Last Quarter
Jan 11
New

Hourly Weather History & Observations

Time (MST) Temp. Windchill Dew Point Humidity Pressure Visibility Wind Dir Wind Speed Gust Speed Precip Events Conditions
12:43 AM 30.2 °F - 28.4 °F 93% 29.77 in 7.0 mi Calm Calm - 0.00 in   Overcast
12:53 AM 30.9 °F 27.5 °F 28.0 °F 89% 29.81 in 8.0 mi NW 3.5 mph - 0.00 in   Overcast
1:09 AM 30.2 °F - 28.4 °F 93% 29.77 in 2.0 mi Calm Calm - 0.00 in Snow Light Snow
1:19 AM 30.2 °F - 28.4 °F 93% 29.77 in 6.0 mi Calm Calm - 0.00 in Snow Light Snow
1:53 AM 30.9 °F - 28.0 °F 89% 29.81 in 6.0 mi Calm Calm - 0.00 in Snow Light Snow
2:53 AM 30.0 °F - 28.0 °F 92% 29.83 in 7.0 mi Calm Calm - 0.00 in   Overcast
3:53 AM 30.9 °F - 28.9 °F 92% 29.82 in 7.0 mi Calm Calm - 0.00 in   Overcast
4:53 AM 30.9 °F - 28.9 °F 92% 29.82 in 4.0 mi Calm Calm - 0.00 in Snow Light Snow
5:04 AM 30.2 °F - 28.4 °F 93% 29.76 in 2.5 mi Calm Calm - 0.00 in Snow Light Snow
5:12 AM 30.2 °F - 28.4 °F 93% 29.76 in 2.0 mi Calm Calm - 0.00 in Snow Light Snow
5:24 AM 30.2 °F - 28.4 °F 93% 29.76 in 3.0 mi Calm Calm - 0.00 in Snow Light Snow
5:53 AM 30.9 °F - 30.0 °F 96% 29.82 in 3.0 mi Calm Calm - 0.00 in Snow Light Snow
6:09 AM 30.2 °F - 28.4 °F 93% 29.77 in 1.8 mi Calm Calm - 0.01 in Snow Light Snow
6:13 AM 30.2 °F - 28.4 °F 93% 29.77 in 1.5 mi Calm Calm - 0.01 in Snow Light Snow
6:36 AM 30.2 °F - 28.4 °F 93% 29.78 in 1.0 mi Calm Calm - 0.02 in Snow Light Snow
6:45 AM 30.2 °F - 28.4 °F 93% 29.78 in 1.0 mi Calm Calm - 0.03 in Snow Light Snow
6:53 AM 30.9 °F - 28.9 °F 92% 29.83 in 0.8 mi Calm Calm - 0.04 in Snow Light Snow
7:08 AM 30.2 °F - 28.4 °F 93% 29.79 in 1.0 mi Calm Calm - 0.00 in Snow Light Snow
7:21 AM 30.2 °F - 28.4 °F 93% 29.79 in 1.5 mi Calm Calm - 0.01 in Snow Light Snow
7:35 AM 30.2 °F - 28.4 °F 93% 29.79 in 1.8 mi Calm Calm - 0.01 in Snow Light Snow
7:43 AM 30.2 °F - 28.4 °F 93% 29.79 in 1.5 mi Calm Calm - 0.01 in Snow Light Snow
7:51 AM 30.2 °F - 28.4 °F 93% 29.79 in 0.8 mi Calm Calm - 0.01 in Snow Light Snow
7:53 AM 30.0 °F - 28.0 °F 92% 29.85 in 0.8 mi Calm Calm - 0.02 in Snow Light Snow
8:53 AM 30.0 °F - 28.9 °F 96% 29.85 in 0.5 mi Calm Calm - 0.02 in Fog , Snow Snow
9:22 AM 30.2 °F - 28.4 °F 93% 29.81 in 0.2 mi Calm Calm - 0.02 in Fog , Snow Snow
9:44 AM 30.2 °F 26.7 °F 28.4 °F 93% 29.81 in 0.5 mi SE 3.5 mph - 0.03 in Fog , Snow Snow
9:53 AM 30.9 °F 25.2 °F 28.9 °F 92% 29.86 in 0.5 mi SSE 5.8 mph - 0.04 in Fog , Snow Snow
10:17 AM 30.2 °F 23.4 °F 28.4 °F 93% 29.82 in 0.8 mi South 6.9 mph - 0.01 in Snow Light Snow
10:29 AM 30.2 °F 24.3 °F 30.2 °F 100% 29.82 in 1.0 mi South 5.8 mph - 0.01 in Snow Light Snow
10:53 AM 30.9 °F 22.8 °F 30.0 °F 96% 29.86 in 1.5 mi South 9.2 mph - 0.02 in Snow Light Snow
11:30 AM 32.0 °F 23.6 °F 28.4 °F 87% 29.80 in 2.0 mi SSW 10.4 mph - 0.00 in Snow Light Snow
11:35 AM 32.0 °F 24.2 °F 28.4 °F 87% 29.80 in 3.0 mi SSW 9.2 mph - 0.00 in Snow Light Snow
11:53 AM 32.0 °F 25.6 °F 28.9 °F 88% 29.84 in 4.0 mi SW 6.9 mph - 0.00 in Snow Light Snow
12:53 PM 32.0 °F 27.5 °F 28.9 °F 88% 29.83 in 10.0 mi South 4.6 mph - 0.00 in   Overcast
1:09 PM 32.0 °F 26.4 °F 28.4 °F 87% 29.78 in 9.0 mi South 5.8 mph - N/A   Overcast
1:18 PM 32.0 °F 28.7 °F 28.4 °F 87% 29.78 in 10.0 mi South 3.5 mph - N/A   Overcast
1:53 PM 32.0 °F 27.5 °F 30.0 °F 92% 29.83 in 10.0 mi ESE 4.6 mph - N/A   Overcast
2:53 PM 32.0 °F 28.7 °F 28.9 °F 88% 29.83 in 10.0 mi East 3.5 mph - N/A   Mostly Cloudy
3:41 PM 30.2 °F 26.7 °F 28.4 °F 93% 29.78 in 10.0 mi East 3.5 mph - N/A   Scattered Clouds
3:53 PM 30.9 °F 27.5 °F 28.9 °F 92% 29.82 in 10.0 mi ENE 3.5 mph - N/A   Clear
4:53 PM 30.0 °F - 27.0 °F 88% 29.83 in 10.0 mi Calm Calm - N/A   Overcast
5:53 PM 30.9 °F 26.2 °F 28.0 °F 89% 29.82 in 10.0 mi NW 4.6 mph - N/A   Overcast
6:08 PM 30.2 °F 25.4 °F 28.4 °F 93% 29.77 in 1.8 mi NNW 4.6 mph - 0.00 in Snow Light Snow
6:15 PM 30.2 °F 25.4 °F 28.4 °F 93% 29.77 in 1.5 mi North 4.6 mph - 0.00 in Snow Light Snow
6:17 PM 30.2 °F 25.4 °F 28.4 °F 93% 29.77 in 2.0 mi North 4.6 mph - 0.00 in Snow Light Snow
6:21 PM 30.2 °F 25.4 °F 28.4 °F 93% 29.77 in 5.0 mi North 4.6 mph - 0.00 in Snow Light Snow
6:34 PM 28.4 °F 23.3 °F 26.6 °F 93% 29.77 in 9.0 mi North 4.6 mph - 0.00 in   Mostly Cloudy
6:53 PM 28.0 °F - 27.0 °F 96% 29.82 in 10.0 mi Calm Calm - 0.00 in   Mostly Cloudy
7:53 PM 27.0 °F - 25.0 °F 92% 29.83 in 6.0 mi Calm Calm - N/A   Overcast
8:53 PM 26.1 °F 20.5 °F 24.1 °F 92% 29.83 in 7.0 mi West 4.6 mph - N/A   Mostly Cloudy
9:53 PM 25.0 °F 20.7 °F 21.9 °F 88% 29.85 in 10.0 mi WNW 3.5 mph - N/A   Overcast
10:53 PM 23.0 °F - 21.0 °F 92% 29.86 in 10.0 mi Calm Calm - N/A   Mostly Cloudy
11:13 PM 23.0 °F - 21.2 °F 93% 29.79 in 10.0 mi Calm Calm - N/A   Mostly Cloudy
11:37 PM 23.0 °F - 21.2 °F 93% 29.78 in 10.0 mi Calm Calm - N/A   Overcast
11:53 PM 24.1 °F - 21.0 °F 88% 29.86 in 10.0 mi Calm Calm - N/A   Overcast